Location: Eenumerhoogte
(53.3420°N, 6.7843°E)
Time: 15:52:34
(UTC+00:00)

Cosmos 2034 Rocket - Pass Details

Date: 15 May 2026
Orbit: 956 x 1001 km, 82.9° (Epoch: 10 June)

Event Time Altitude Azimuth Distance (km) Brightness Sun altitude
Exits shadow 21:58:34 14° 195° (SSW) 2,507 5.7 -15.0°
Maximum altitude 22:04:14 79° 281° (W) 1,020 4.1 -15.3°
Drops below altitude 10° 22:10:36 10° 9° (N) 2,761 7.3 -15.6°
Sets 22:13:08 0° 11° (N) 3,708 8.1 -15.8°
